Regional Weather Roundup
Issued by NWS Sterling, VA

Home | Current Version | Previous Version | Text Only | Print | Product List | Glossary Off
Versions: 1 2 3 4 5 6 7 8 9 10 11 12 13 14 15 16 17 18 19 20 21 22 23 24 25 26 27 28 29 30 31 32 33 34 35 36 37 38 39 40 41 42 43 44 45 46 47 48 49 50

000
ASUS41 KLWX 271610
RWRLWX

REGIONAL WEATHER ROUNDUP
NATIONAL WEATHER SERVICE BALTIMORE MD/WASHINGTON DC
1100 AM EST TUE JAN 27 2015

Note: "FAIR" indicates few or no clouds below 12,000 feet
with no significant weather and/or obstructions to visibility.
 TC=TEMPERATURE CELSIUS

 * =Non NWS site. Station does not report precipitation (e.g. rain,
    snow, etc.), thunder, or fog.

DCZ001-MDZ009-015-VAZ040>042-051-053>054-271700-
WASHINGTON METRO

CITY           SKY/WX    TMP DP  RH WIND       PRES   REMARKS
WASHINGTON NAT CLOUDY    33  22  63 NW12      29.84S WCI  24
DULLES         PTSUNNY   29  20  69 NW21G26   29.83R WCI  16
ANDREWS AFB    PTSUNNY   30  23  74 NW15      29.80S WCI  19
FT BELVOIR     CLOUDY    31  21  68 NW10      29.84S WCI  22
QUANTICO       CLOUDY    32  22  66 N16G24    29.85S WCI  21
COLLEGE PARK*  PTSUNNY   32  25  74 NW7       29.82S
LEESBURG*      CLOUDY    30  27  86 NW14G22   29.84R WCI  20
MANASSAS*      CLOUDY    32  25  74 NW17G24   29.84S WCI  21
GAITHERSBURG*  PTSUNNY   28  21  74 NW14      29.84S WCI  17

$$

MDZ006>007-011-014-271700-
BALTIMORE METRO

CITY           SKY/WX    TMP DP  RH WIND       PRES   REMARKS
BWI AIRPORT    CLOUDY    32  22  66 NW12      29.80S WCI  23
MD SCIENCE CTR   N/A     30  21  69 MISG      29.82R
MARTIN STATE   PTSUNNY   32  27  80 NW10      29.82S WCI  24
ANNAPOLIS      CLOUDY    32  23  69 NW15      29.80S WCI  22
FORT MEADE*    CLOUDY    32  23  69 N8        29.83S WCI  25

$$

MDZ012-015-019>023-271700-
MARYLAND EASTERN SHORE

CITY           SKY/WX    TMP DP  RH WIND       PRES   REMARKS
OCEAN CITY     PTSUNNY   32  24  72 N16G25    29.72S WCI  21
SALISBURY      CLOUDY    34  25  69 NW17      29.74F WCI  23
BAY BRIDGE AP*   N/A     32  25  74 NW12G17   29.80F WCI  23
CAMBRIDGE*     PTSUNNY   34  28  80 NW16      29.76F WCI  23
EASTON*        CLOUDY    32  28  86 NW13      29.82S WCI  22

$$

MDZ017>025-271700-
SOUTHERN MARYLAND

CITY           SKY/WX    TMP DP  RH WIND       PRES   REMARKS
PATUXENT RIVER CLOUDY    32  24  72 NW17      29.79S WCI  21
ST INIGOES     CLOUDY    33  23  66 NW9G18    29.79S WCI  25
LEONARDTOWN*   CLOUDY    32  23  69 NW7G16    29.80F

$$

MDZ003>005-271700-
NORTH CENTRAL MARYLAND

CITY           SKY/WX    TMP DP  RH WIND       PRES   REMARKS
FREDERICK*     PTSUNNY   34  19  55 NW6       29.86R
HAGERSTOWN APT CLOUDY    28  20  71 NW8       29.83R WCI  20
WESTMINSTER*   PTSUNNY   28  21  74 NW9       29.79S WCI  20

$$

MDZ501>502-271700-
WESTERN MARYLAND

CITY           SKY/WX    TMP DP  RH WIND       PRES   REMARKS
OAKLAND*       CLOUDY    18 N/A N/A CALM      29.77R FOG
CUMBERLAND*    PTSUNNY   30  18  59 CALM      29.92S

$$

VAZ025>031-271700-
SHENANDOAH VALLEY

CITY           SKY/WX    TMP DP  RH WIND       PRES   REMARKS
WINCHESTER*    CLOUDY    30  19  64 NW17G23   29.85S WCI  18
FRONT ROYAL*   CLOUDY    28  21  74 NW7       29.85S
LURAY*         LGT SNOW  30  28  93 CALM      29.85S
NEW MARKET*    CLOUDY    27  18  68 CALM      29.86R
STAUNTON*      CLOUDY    30  20  67 N10       29.85S WCI  21
WAYNESBORO*    FAIR      27  19  70 N8        29.82R WCI  19

$$

WVZ021-048>050-054>055-271700-
EASTERN WEST VIRGINIA PANHANDLE

CITY           SKY/WX    TMP DP  RH WIND       PRES   REMARKS
MARTINSBURG    CLOUDY    29  19  66 NW14G22   29.85S WCI  18
PETERSBURG*    CLOUDY    27  13  55 N6        29.89S

$$

VAZ036>039-050-271700-
CENTRAL FOOTHILLS

CITY           SKY/WX    TMP DP  RH WIND       PRES   REMARKS
CHARLOTTESVILL CLOUDY    32  20  61 VRB6      29.82R
CULPEPER*      CLOUDY    32  23  69 N12       29.84S WCI  23
ORANGE*        FLURRIES  32  30  93 SW3       29.85R
GORDONSVILLE*  CLOUDY    31  26  80 W3        29.83R
WARRENTON*     CLOUDY    33  27  78 NW15G21   29.83S WCI  23

$$

VAZ055>057-271700-
NORTH AND CENTRAL PIEDMONT

CITY           SKY/WX    TMP DP  RH WIND       PRES   REMARKS
FREDERICKSBRG* CLOUDY    33  24  71 N9G22     29.83F WCI  25
STAFFORD*      CLOUDY    31  22  69 CALM      29.87F

$$

NCZ024-NYZ072-PAZ021-071-VAZ022-071-271700-
OTHER REGIONAL OBSERVATIONS

CITY           SKY/WX    TMP DP  RH WIND       PRES   REMARKS
NEW YORK CITY  LGT SNOW  25  17  72 NW8G21    29.70S WCI  16
PHILADELPHIA   CLOUDY    29  21  72 NW15      29.76F WCI  18
PITTSBURGH     FLURRIES  21  15  78 N10       29.93S WCI  10
ROANOKE        MOSUNNY   33   7  33 NW10      29.86S WCI  25
RICHMOND       FLURRIES  33  25  72 N18G24    29.82S WCI  22
RALEIGH        PTSUNNY   34  17  50 VRB7      29.84R

$$

ANZ530>537-271700-
MARINE OBSERVATIONS

STATION/POSITION TIME  TEMP    WIND        PRES
                       AIR SEA DIR/SP/G
                 (UTC) (F)     (DEG/KT/KT) (MB)
THOMAS PT LIGHT  1600   31 37  340/ 15/ 17 1009.9F
BALT KEY BRIDGE  1600   30     330/ 12/ 14 1009.4S
COVE POINT       1600   30     350/ 20/ 23 1008.5F
LEWISETTA        1600   32 37  330/ 12/ 17 1008.7F
SOLOMONS ISLAND  1600      38                N/A
PINEY POINT      1600          350/ 18/ 20   N/A

$$



USA.gov is the U.S. government's official web portal to all federal, state and local government web resources and services.